Location: Chanteloup
(48.8560°N, 2.7390°E)
Time: 03:46:59
(UTC+00:00)

Cosmos 2322 Rocket - Pass Details

Date: 03 June 2022
Orbit: 833 x 850 km, 71.0° (Epoch: 05 July)

Event Time Altitude Azimuth Distance (km) Brightness Sun altitude
Rises 21:57:49 0° 238° (WSW) 3,372 5.3 -14.7°
Reaches altitude 10° 22:00:30 10° 248° (WSW) 2,441 4.7 -14.9°
Maximum altitude 22:05:29 32° 312° (NW) 1,394 4.0 -15.2°
Drops below altitude 10° 22:10:31 10° 15° (NNE) 2,456 5.4 -15.5°
Sets 22:13:14 0° 25° (NNE) 3,395 6.0 -15.7°
